Imperial, CA

7:01 PM PST on February 26, 2017 (GMT -0800)
Imperial County

Weather History for KIPL - September, 2013

Change the Weather History Date:

Tuesday, September 17, 2013

  Actual Average Record
Temperature  
Mean Temperature 91 °F -  
Max Temperature 108 °F 100 °F 111 °F (1998)
Min Temperature 75 °F 71 °F 57 °F (2006)
Cooling Degree Days 26    
Growing Degree Days 41 (Base 50)    
Moisture  
Dew Point 43 °F    
Average Humidity 21    
Maximum Humidity 42    
Minimum Humidity 8    
Precipitation  
Precipitation 0.00 in - - ()
Sea Level Pressure  
Sea Level Pressure 29.60 in    
Wind  
Wind Speed 7 mph (West)    
Max Wind Speed 21 mph    
Max Gust Speed 29 mph    
Visibility 10 miles    
Events      
Averages and records for this station are not official NWS values.
T = Trace of Precipitation, MM = Missing Value Source: NWS Daily Summary

Daily Weather History Graph

Daily Weather History Graph

Search for Another Location

Airport or City:

Trip Planner

Search our weather history database for the weather conditions in past years. The results will help you decide how hot, cold, wet, or windy it might be!

Date:

Astronomy

Sep. 17, 2013 Rise Set
Actual Time 6:27 AM PDT 6:45 PM PDT
Civil Twilight 6:02 AM PDT 7:09 PM PDT
Nautical Twilight 5:33 AM PDT 7:38 PM PDT
Astronomical Twilight 5:04 AM PDT 8:08 PM PDT
Moon 5:32 PM PDT (9/17) 4:31 AM PDT (9/17)
Length of Visible Light 13h 07m
Length of Day
12h 17m
Waxing Gibbous, 96% of the Moon is Illuminated
Sep 17
Waxing Gibbous
Sep 19
Full
Sep 26
Last Quarter
Oct 4
New
Oct 11
First Quarter

Hourly Weather History & Observations

Time (PDT) Temp. Dew Point Humidity Pressure Visibility Wind Dir Wind Speed Gust Speed Precip Events Conditions
12:53 AM 87.1 °F 44.1 °F 22% 29.64 in 10.0 mi NW 8.1 mph - N/A   Clear
1:53 AM 82.0 °F 48.0 °F 30% 29.63 in 10.0 mi NW 4.6 mph - N/A   Clear
2:53 AM 81.0 °F 48.0 °F 31% 29.63 in 10.0 mi WNW 8.1 mph - N/A   Clear
3:53 AM 79.0 °F 48.9 °F 35% 29.62 in 10.0 mi West 5.8 mph - N/A   Clear
4:53 AM 75.9 °F 50.0 °F 40% 29.62 in 10.0 mi West 6.9 mph - N/A   Clear
5:53 AM 77.0 °F 52.0 °F 42% 29.63 in 10.0 mi West 8.1 mph - N/A   Clear
6:53 AM 75.9 °F 51.1 °F 42% 29.65 in 10.0 mi WSW 5.8 mph - N/A   Clear
7:53 AM 82.9 °F 52.0 °F 34% 29.66 in 10.0 mi NW 3.5 mph - N/A   Clear
8:53 AM 91.0 °F 52.0 °F 26% 29.66 in 10.0 mi Calm Calm - N/A   Clear
9:53 AM 97.0 °F 48.0 °F 19% 29.66 in 10.0 mi West 5.8 mph - N/A   Clear
10:53 AM 100.9 °F 41.0 °F 13% 29.65 in 10.0 mi Calm Calm - N/A   Clear
11:53 AM 102.9 °F 39.0 °F 11% 29.62 in 10.0 mi Calm Calm - N/A   Clear
12:53 PM 105.1 °F 39.9 °F 11% 29.60 in 10.0 mi Variable 3.5 mph - N/A   Clear
1:53 PM 107.1 °F 39.0 °F 10% 29.57 in 10.0 mi Calm Calm - N/A   Clear
2:53 PM 107.1 °F 43.0 °F 11% 29.55 in 10.0 mi West 8.1 mph - N/A   Clear
3:53 PM 107.1 °F 35.1 °F 8% 29.53 in 10.0 mi SSW 8.1 mph - N/A   Clear
4:53 PM 105.1 °F 37.9 °F 10% 29.52 in 10.0 mi West 13.8 mph - N/A   Clear
5:53 PM 100.9 °F 43.0 °F 14% 29.52 in 10.0 mi West 15.0 mph 21.9 mph N/A   Clear
6:53 PM 96.1 °F 43.0 °F 16% 29.53 in 10.0 mi WNW 13.8 mph 23.0 mph N/A   Clear
7:53 PM 93.0 °F 39.0 °F 15% 29.53 in 10.0 mi West 20.7 mph 28.8 mph N/A   Clear
8:53 PM 89.1 °F 39.0 °F 17% 29.56 in 10.0 mi WNW 11.5 mph - N/A   Clear
9:53 PM 86.0 °F 37.9 °F 18% 29.58 in 10.0 mi WNW 9.2 mph - N/A   Clear
10:53 PM 82.9 °F 37.0 °F 19% 29.58 in 10.0 mi WNW 8.1 mph - N/A   Clear
11:53 PM 82.9 °F 35.1 °F 18% 29.59 in 10.0 mi NW 5.8 mph - N/A   Clear